This is the latest recevied weather packets stored in our database for station/object HB9EYW-6. If no packets are shown the sender has not sent any weather packets the latest 10 day(s).
| Time | Temp. | Humidity | Pressure | Rain* | Wind** | Luminosity | Snow |
|---|---|---|---|---|---|---|---|
| 1777992004 | 16.67° C | 65% | 0 hPa | 0 mm | - | - | - |
| 1777991704 | 16.67° C | 65% | 0 hPa | 0 mm | - | - | - |
| 1777991404 | 16.67° C | 66% | 0 hPa | 0 mm | - | - | - |
| 1777991104 | 16.67° C | 66% | 0 hPa | 0 mm | - | - | - |
| 1777990804 | 16.67° C | 66% | 0 hPa | 0 mm | - | - | - |
| 1777990504 | 16.67° C | 66% | 0 hPa | 0 mm | - | - | - |
| 1777989904 | 16.67° C | 62% | 0 hPa | 0 mm | - | - | - |
| 1777989604 | 16.67° C | 62% | 0 hPa | 0 mm | - | - | - |
| 1777989304 | 17.78° C | 59% | 0 hPa | 0 mm | - | - | - |
| 1777989004 | 18.33° C | 52% | 0 hPa | 0 mm | - | - | - |
| 1777988704 | 18.89° C | 48% | 0 hPa | 0 mm | - | - | - |
| 1777988404 | 19.44° C | 44% | 0 hPa | 0 mm | - | - | - |
| 1777988104 | 21.11° C | 42% | 0 hPa | 0 mm | - | - | - |
| 1777987804 | 21.67° C | 38% | 0 hPa | 0 mm | - | - | - |
| 1777987504 | 22.78° C | 38% | 0 hPa | 0 mm | - | - | - |
| 1777987204 | 22.78° C | 38% | 0 hPa | 0 mm | - | - | - |
| 1777986904 | 22.78° C | 37% | 0 hPa | 0 mm | - | - | - |
| 1777986604 | 22.78° C | 37% | 0 hPa | 0 mm | - | - | - |
| 1777986304 | 22.22° C | 39% | 0 hPa | 0 mm | - | - | - |
| 1777986004 | 22.22° C | 39% | 0 hPa | 0 mm | - | - | - |
| 1777985704 | 22.78° C | 38% | 0 hPa | 0 mm | - | - | - |
| 1777985404 | 22.78° C | 43% | 0 hPa | 0 mm | - | - | - |
| 1777985104 | 22.22° C | 44% | 0 hPa | 0 mm | - | - | - |
| 1777984804 | 21.67° C | 44% | 0 hPa | 0 mm | - | - | - |
| 1777984504 | 21.67° C | 45% | 0 hPa | 0 mm | - | - | - |
* Rain latest hour (hover to see other rain measurements)
** Current wind speed in m/s (hover to see current wind gust speed)